This is the latest recevied weather packets stored in our database for station/object KN6ETB-1. If no packets are shown the sender has not sent any weather packets the latest 10 day(s).
| Time | Temp. | Humidity | Pressure | Rain* | Wind** | Luminosity | Snow |
|---|---|---|---|---|---|---|---|
| 1778001657 | 14.44° C | 86% | 1012.6 hPa | 0 mm | - | 119 W/m² | - |
| 1778001357 | 15° C | 86% | 1012.6 hPa | 0 mm | - | 127 W/m² | - |
| 1778001055 | 15° C | 86% | 1012.7 hPa | 0 mm | - | 221 W/m² | - |
| 1778000751 | 14.44° C | 86% | 1012.7 hPa | 0 mm | - | 153 W/m² | - |
| 1778000448 | 15° C | 86% | 1012.7 hPa | 0 mm | - | 213 W/m² | - |
| 1778000143 | 15° C | 86% | 1012.8 hPa | 0 mm | - | 179 W/m² | - |
| 1777999839 | 15° C | 86% | 1012.6 hPa | 0 mm | - | 202 W/m² | - |
| 1777999535 | 15° C | 86% | 1012.6 hPa | 0 mm | - | 200 W/m² | - |
| 1777999233 | 14.44° C | 87% | 1012.5 hPa | 0 mm | - | 248 W/m² | - |
| 1777998931 | 14.44° C | 87% | 1012.7 hPa | 0 mm | - | 199 W/m² | - |
| 1777998628 | 14.44° C | 87% | 1012.7 hPa | 0 mm | - | 157 W/m² | - |
| 1777998321 | 13.89° C | 87% | 1012.6 hPa | 0 mm | - | 95 W/m² | - |
| 1777998018 | 13.89° C | 87% | 1012.5 hPa | 0 mm | - | 150 W/m² | - |
| 1777997715 | 14.44° C | 88% | 1012.4 hPa | 0 mm | - | 129 W/m² | - |
| 1777997412 | 13.89° C | 88% | 1012.5 hPa | 0 mm | - | 122 W/m² | - |
| 1777997110 | 13.89° C | 88% | 1012.4 hPa | 0 mm | - | 108 W/m² | - |
| 1777996807 | 13.89° C | 89% | 1012.5 hPa | 0 mm | - | 109 W/m² | - |
| 1777996503 | 13.89° C | 89% | 1012.4 hPa | 0 mm | - | 77 W/m² | - |
| 1777996200 | 13.89° C | 89% | 1012.3 hPa | 0 mm | - | 70 W/m² | - |
| 1777995896 | 13.33° C | 90% | 1012.2 hPa | 0 mm | - | 114 W/m² | - |
| 1777995592 | 13.33° C | 90% | 1012.3 hPa | 0 mm | - | 106 W/m² | - |
| 1777995290 | 13.33° C | 91% | 1012 hPa | 0 mm | - | 105 W/m² | - |
| 1777994986 | 13.33° C | 91% | 1012.2 hPa | 0 mm | - | 116 W/m² | - |
| 1777994683 | 13.33° C | 92% | 1012.1 hPa | 0 mm | - | 133 W/m² | - |
| 1777994378 | 13.33° C | 92% | 1011.9 hPa | 0 mm | - | 138 W/m² | - |
* Rain latest hour (hover to see other rain measurements)
** Current wind speed in m/s (hover to see current wind gust speed)